SCP
0 0 0 0 0 0 0 0 0 0 0 0 0 0 0 0 0 0 0 0 0 0 0 1 1 1 1 1 1 1 1 0 0 0 0 0 0 0 0 0 0 0 0
0 0 0 0 0 0 0 0 0 0 0 0 0 0 0 0 0 0 0 0 1 1 1 1 1 1 1 1 1 1 1 1 0 0 0 0 0 0 0 0 0 0 0
0 0 0 0 0 0 0 0 0 0 0 0 0 0 0 0 0 0 0 0 1 1 1 1 1 1 1 1 1 1 1 1 1 0 0 0 0 0 0 0 0 0 0
0 0 0 0 0 0 0 0 0 0 0 0 0 0 0 0 0 0 0 0 0 1 1 1 1 1 1 1 1 1 1 1 1 0 0 0 0 0 0 0 0 0 0
0 0 0 0 0 0 0 0 0 0 0 0 0 0 0 0 0 0 0 0 0 0 0 1 1 1 1 1 1 0 0 0 0 0 0 0 0 0 0 0 0 0 0
0 0 0 0 0 0 0 0 0 0 0 0 0 0 0 0 0 0 0 0 0 0 0 0 0 1 1 1 1 1 0 0 0 0 0 0 0 0 0 0 0 0 0
0 0 0 0 0 0 0 0 0 0 0 0 0 0 0 0 0 0 0 0 0 0 0 0 0 0 0 0 1 1 0 0 0 0 0 0 0 0 0 0 0 0 0
0 0 0 0 0 0 0 0 0 0 0 0 0 0 0 0 0 0 0 0 0 0 0 0 0 0 0 0 0 1 1 0 0 0 0 0 0 0 0 0 0 0 0
0 0 0 0 0 0 0 0 0 0 0 0 0 0 0 0 0 0 0 0 0 0 0 0 0 0 0 0 0 0 0 0 0 0 0 0 0 0 0 0 0 0 0
0 0 0 0 0 0 0 0 0 0 0 0 0 0 0 0 0 0 0 0 0 0 0 0 0 0 0 0 0 0 0 0 0 0 0 0 0 0 0 0 0 0 0
0 0 0 0 0 0 0 0 0 0 0 0 0 0 0 0 0 0 0 0 0 0 0 0 0 0 0 0 0 0 0 0 0 0 0 0 0 0 0 0 0 0 0
0 0 0 0 0 0 0 0 0 0 0 0 0 0 0 0 0 0 0 0 0 0 0 0 0 0 0 0 0 0 0 0 0 0 0 0 0 0 0 0 0 0 0
0 0 0 0 0 0 0 0 0 0 0 0 0 0 0 0 0 0 0 0 0 0 0 0 0 0 0 0 0 0 0 0 0 0 0 0 0 0 0 0 0 0 0
0 0 0 0 0 0 0 0 0 0 0 0 0 0 0 0 0 0 0 0 0 0 0 0 0 0 0 0 0 0 0 0 0 0 0 0 0 0 0 0 0 0 0
0 0 0 0 0 0 0 0 0 0 0 0 0 0 0 0 0 0 0 0 0 0 0 0 0 0 0 0 0 0 0 0 0 0 0 0 0 0 0 0 0 0 0
0 0 0 0 0 0 0 0 0 0 0 0 0 0 0 0 0 0 0 0 0 0 0 0 0 0 0 0 0 0 0 0 0 0 0 0 0 0 0 0 0 0 0
0 0 0 0 0 0 0 0 0 0 0 0 0 0 0 0 0 0 0 0 0 0 0 0 0 0 0 0 0 0 0 0 0 0 0 0 0 0 0 0 0 0 0
0 0 0 0 0 0 0 0 0 0 0 0 0 0 0 0 0 0 0 0 0 0 0 0 0 0 0 0 0 0 0 0 0 0 0 0 0 0 0 0 0 0 0
0 0 0 0 0 0 0 0 0 0 0 0 0 0 0 0 0 0 0 0 0 0 0 0 0 0 0 0 0 0 0 0 0 0 0 0 0 0 0 0 0 0 0
0 0 0 0 0 0 0 0 0 0 0 0 0 0 0 0 0 0 0 0 0 0 0 0 0 0 0 0 0 0 0 0 0 0 0 0 0 0 0 0 0 0 0
0 0 0 0 0 0 0 0 0 0 0 0 0 0 0 0 0 0 0 0 0 0 0 0 0 0 0 0 0 0 0 0 0 0 0 0 0 0 0 0 0 0 0
0 0 0 0 0 0 0 0 0 0 0 0 0 0 0 0 0 0 0 0 0 0 0 0 0 0 0 0 0 0 0 0 0 0 0 0 0 0 0 0 0 0 0
0 0 0 0 0 0 0 0 0 0 0 0 0 0 0 0 0 0 0 0 0 0 0 0 0 0 0 0 0 0 0 0 0 0 0 0 0 0 0 0 0 0 0
0 0 0 0 0 0 0 0 0 0 0 0 0 0 0 0 0 0 0 0 0 0 0 0 0 0 0 0 0 0 0 0 0 0 0 0 0 0 0 0 0 0 0
0 0 0 0 0 0 0 0 0 0 0 0 0 0 0 0 0 0 0 0 0 0 0 0 0 0 0 0 0 0 0 0 0 0 0 0 0 0 0 0 0 0 0
0 0 0 0 0 0 0 0 0 0 0 0 0 0 0 0 0 0 0 0 0 0 0 0 0 0 0 0 0 0 0 0 0 0 0 0 0 0 0 0 0 0 0
Wind_Speed
3 2 2 1 1 1 1 0 0 0 1 2 2 3 3 2 2 2 2 2 3 3 5 6 5 4 4 4 4 4 4 5 5 5 5 4 4 3 3 2 2 3 3
4 3 3 2 2 2 2 1 1 1 2 2 3 3 3 2 2 2 2 3 4 5 5 6 6 6 5 4 4 4 3 3 4 4 5 4 3 2 2 2 2 2 3
4 4 3 3 3 2 2 1 1 2 3 3 3 3 2 2 2 2 3 3 3 5 6 7 6 6 6 5 5 5 4 4 3 3 3 3 3 2 1 1 1 1 2
5 4 3 3 3 3 3 2 2 2 2 3 3 2 2 1 2 2 3 3 3 3 5 7 7 6 5 5 4 5 5 4 4 3 2 2 2 2 2 1 1 0 1
6 5 4 3 3 3 3 3 2 2 3 3 3 2 1 1 0 1 2 3 3 4 3 5 7 7 6 5 4 4 4 4 4 3 2 1 0 1 2 2 2 2 1
7 6 4 4 3 3 3 3 3 2 2 3 3 2 1 1 1 0 0 1 2 3 3 3 3 4 6 6 5 4 4 4 4 3 2 1 1 1 2 3 2 2 2
7 6 5 4 4 4 4 4 3 3 2 3 3 2 2 1 1 1 1 0 0 1 1 1 2 2 2 6 6 5 4 4 4 4 4 3 3 2 2 2 2 3 2
6 6 6 5 5 4 5 5 4 3 2 3 3 3 1 2 2 1 1 2 2 1 1 1 0 0 1 2 3 5 5 4 4 4 4 4 3 3 3 3 3 3 2
6 5 6 5 5 6 6 6 6 6 4 2 2 3 4 4 2 2 2 2 3 2 2 2 3 2 1 0 1 3 4 4 4 4 5 5 5 4 4 4 3 3 2
5 5 5 6 6 5 6 7 7 5 5 4 2 1 1 3 3 1 2 2 3 4 4 3 4 4 3 2 2 2 1 3 3 3 4 5 5 5 5 5 5 3 3
4 4 5 5 5 5 6 6 7 7 5 5 4 3 2 0 1 2 2 2 2 3 4 4 4 4 4 3 2 3 2 1 2 3 4 5 6 6 6 6 6 5 4
2 3 4 4 5 4 5 6 6 8 6 6 5 5 4 4 4 3 3 2 3 3 3 3 4 5 4 4 5 6 5 3 2 3 3 4 5 6 7 7 6 6 6
1 2 3 3 3 4 4 5 5 6 7 7 8 6 5 5 3 4 3 3 2 2 2 3 4 4 5 4 5 8 7 5 4 3 2 2 3 5 6 6 7 7 7
2 2 3 3 3 3 4 4 4 5 6 7 8 7 5 5 4 4 5 4 2 1 2 4 3 5 5 5 7 8 5 8 7 5 4 2 1 3 4 5 6 6 7
2 2 3 2 2 3 3 4 3 4 4 6 6 7 6 5 5 5 4 5 5 4 4 4 4 4 5 5 7 6 5 9 9 8 6 4 2 1 2 3 4 5 5
2 3 3 3 2 2 2 3 2 3 4 4 4 6 6 4 5 5 5 4 4 5 4 3 4 3 4 6 9 7 7 11 11 9 8 7 5 3 1 1 2 3 4
3 3 3 3 2 2 2 2 2 2 3 3 4 5 6 6 5 5 5 5 5 4 5 3 2 2 4 4 5 5 5 6 5 10 10 9 7 6 5 3 2 2 3
3 3 3 3 3 2 2 2 1 1 2 2 2 3 4 4 6 6 6 7 6 6 5 5 3 2 3 4 4 5 5 5 5 9 11 10 10 9 7 6 5 4 3
2 3 3 3 3 3 3 2 2 1 1 1 1 2 2 3 4 4 6 6 5 6 4 4 3 2 2 2 2 3 4 3 5 7 10 11 11 10 9 8 7 6 5
3 3 3 3 3 3 3 3 3 2 2 1 1 0 0 1 2 2 3 4 4 5 5 4 3 3 2 2 2 3 3 4 4 4 6 6 9 11 11 10 9 8 7
2 3 3 3 3 3 4 4 4 3 3 2 1 1 1 1 2 2 2 2 3 3 4 3 3 3 3 3 3 3 3 2 3 4 3 4 5 5 7 10 12 11 9
2 2 3 3 4 4 6 9 6 4 4 3 2 1 2 2 2 3 3 4 4 3 3 3 3 3 3 3 3 3 3 2 2 3 4 4 4 6 6 6 10 12 12
2 2 2 3 4 5 7 9 10 5 4 4 3 2 2 2 3 2 3 4 5 7 6 4 4 4 3 4 4 4 4 3 3 2 3 3 3 6 6 7 14 15 15
3 3 3 3 3 4 6 8 9 6 4 4 4 4 3 3 3 4 3 3 4 4 5 4 4 4 4 4 4 4 4 3 2 2 4 3 3 4 4 6 13 16 16
4 4 3 3 3 4 4 5 6 4 4 4 3 3 4 4 5 5 4 4 4 4 5 8 8 7 7 7 5 3 3 2 3 3 4 3 3 2 3 3 7 14 15
4 4 4 4 4 3 4 2 5 3 3 2 1 1 3 4 4 4 4 4 4 3 2 2 3 4 4 4 6 5 4 4 2 2 3 3 2 1 3 2 1 3 7
Wind_Direction
173 174 175 170 160 144 141 85 13 42 125 117 108 109 96 80 61 31 357 44 102 126 135 138 135 134 130 139 146 153 162 170 168 163 154 145 135 116 98 79 58 33 11
175 177 183 186 189 180 170 172 205 166 147 131 121 113 100 86 69 51 29 30 63 88 107 112 111 112 108 109 117 125 135 160 176 179 170 164 161 149 121 102 70 34 7
187 183 187 195 191 170 162 141 110 111 120 119 119 114 100 90 86 67 49 35 38 64 87 96 99 100 102 100 99 102 105 106 136 173 176 175 179 190 185 152 110 30 351
195 188 196 208 177 155 153 145 130 110 114 123 125 119 107 104 93 80 61 49 40 42 62 77 78 79 88 94 96 103 106 100 96 103 126 152 186 227 244 237 215 279 334
198 192 206 212 166 157 161 164 144 138 146 143 133 105 98 102 84 91 74 60 52 47 40 54 58 58 69 76 86 99 108 104 98 92 90 86 152 254 256 243 233 244 288
198 192 203 208 174 169 176 169 155 136 139 145 125 87 49 355 315 315 100 70 59 50 44 41 35 34 53 57 68 85 98 101 95 88 77 55 9 299 284 271 265 254 263
194 193 199 196 185 188 190 172 149 144 129 130 102 70 16 9 254 257 261 188 128 66 58 40 33 24 19 37 46 67 84 89 88 75 62 47 29 7 340 321 302 292 295
191 196 193 191 189 186 183 176 155 147 148 159 135 122 75 328 303 228 221 219 219 210 219 231 276 357 14 11 25 55 61 70 79 71 54 43 34 19 5 339 326 318 319
191 194 192 188 188 184 191 189 174 166 164 176 163 148 159 211 251 287 237 219 205 209 226 230 228 236 237 294 347 22 51 52 67 64 51 42 38 32 20 10 353 342 348
194 195 191 189 190 191 195 194 183 174 161 170 167 127 157 162 162 229 291 245 214 216 219 221 218 223 224 225 251 268 51 54 52 49 43 39 36 35 27 23 14 357 343
197 196 192 187 192 194 197 191 182 181 178 173 166 152 140 128 142 152 229 263 257 234 217 217 216 215 217 217 228 244 229 110 73 60 42 34 32 30 27 23 21 12 2
195 195 185 186 192 195 195 193 189 187 189 183 179 178 177 178 188 171 185 222 239 251 228 217 216 213 209 209 220 227 219 192 141 96 63 45 35 30 24 18 17 17 19
204 204 183 183 187 194 193 186 187 194 193 195 198 202 200 201 176 166 168 188 224 259 265 239 221 209 207 201 215 223 219 205 189 166 125 73 47 35 28 21 20 19 21
200 188 177 178 185 186 186 183 191 198 199 206 211 208 208 212 194 180 173 163 179 244 267 256 231 210 205 197 208 211 214 210 203 199 191 168 98 50 36 27 22 19 21
162 143 142 147 167 181 185 181 196 205 202 209 214 210 211 212 203 200 187 174 170 193 238 244 234 217 202 195 199 199 202 215 210 209 206 200 187 118 42 24 19 16 18
134 131 128 132 138 158 175 181 201 209 210 215 211 212 214 208 205 203 201 195 181 177 212 233 229 215 193 203 203 197 204 215 218 213 212 213 212 212 229 322 353 0 2
149 150 148 143 143 141 139 156 193 200 214 223 221 218 221 206 204 203 199 197 196 182 208 228 218 192 183 193 190 189 198 208 218 217 214 217 219 222 229 245 277 312 330
168 165 157 155 161 158 153 160 177 180 203 220 226 226 227 214 211 205 202 203 201 195 196 213 200 188 194 192 183 188 200 211 214 223 220 220 222 225 227 233 244 263 285
183 176 173 180 183 178 174 176 172 164 173 198 218 231 240 225 216 209 206 206 202 199 192 194 194 173 162 146 151 193 204 210 214 223 226 226 225 225 226 228 234 244 256
203 202 201 202 199 193 187 182 173 163 158 153 151 173 216 221 226 221 213 208 199 195 191 189 184 173 168 156 154 177 207 210 221 217 223 222 225 229 228 228 231 235 239
238 214 208 210 205 199 201 192 186 181 176 172 168 173 217 216 211 210 201 193 193 198 190 188 185 176 174 167 187 178 202 202 226 211 215 221 219 226 227 230 232 233 230
287 231 218 217 219 223 216 202 191 188 190 194 207 228 255 253 247 238 227 206 194 193 196 189 190 196 195 186 172 172 169 170 249 201 197 233 201 230 230 224 227 227 226
335 301 261 236 239 244 238 219 204 188 194 204 210 222 246 236 230 235 253 245 227 219 204 184 190 199 192 191 175 179 187 197 219 187 171 243 204 237 234 227 226 228 226
344 331 312 281 263 262 249 231 210 190 193 208 212 217 234 254 239 217 219 235 242 238 226 216 210 213 207 195 189 188 190 206 232 189 169 236 220 232 238 226 229 225 223
348 342 334 328 305 301 291 245 191 173 191 211 218 224 233 248 258 230 209 231 253 259 253 239 232 231 225 214 194 176 183 201 238 224 186 217 241 235 244 239 231 226 222
352 357 6 5 355 338 335 291 175 163 181 197 210 241 254 261 268 231 200 212 247 264 240 238 240 242 233 227 213 203 202 208 217 242 191 197 234 214 280 267 269 231 226